TimeCST,TemperatureF,Dew PointF,Humidity,Sea Level PressureIn,VisibilityMPH,Wind Direction,Wind SpeedMPH,Gust SpeedMPH,PrecipitationIn,Events,Conditions,WindDirDegrees,DateUTC
12:52 AM,34.0,24.1,67,30.43,10.0,SSE,3.5,-,N/A,,Clear,160,2012-11-24 06:52:00
1:52 AM,37.0,24.1,59,30.42,10.0,Calm,Calm,-,N/A,,Clear,0,2012-11-24 07:52:00
2:52 AM,36.0,26.1,67,30.41,10.0,Calm,Calm,-,N/A,,Clear,0,2012-11-24 08:52:00
3:52 AM,36.0,26.1,67,30.41,10.0,Calm,Calm,-,N/A,,Clear,0,2012-11-24 09:52:00
4:52 AM,33.1,24.1,70,30.40,10.0,Calm,Calm,-,N/A,,Clear,0,2012-11-24 10:52:00
5:52 AM,30.9,24.1,76,30.41,10.0,South,4.6,-,N/A,,Clear,170,2012-11-24 11:52:00
6:52 AM,32.0,23.0,69,30.40,10.0,SSE,3.5,-,N/A,,Clear,150,2012-11-24 12:52:00
7:52 AM,32.0,25.0,75,30.39,10.0,South,8.1,-,N/A,,Clear,180,2012-11-24 13:52:00
8:52 AM,42.1,26.1,53,30.39,10.0,SSW,5.8,-,N/A,,Clear,210,2012-11-24 14:52:00
9:52 AM,48.9,24.1,38,30.39,10.0,SSW,8.1,-,N/A,,Clear,200,2012-11-24 15:52:00
10:52 AM,54.0,21.9,29,30.35,9.0,SSW,10.4,-,N/A,,Clear,200,2012-11-24 16:52:00
11:52 AM,57.0,21.9,26,30.31,10.0,SSW,11.5,17.3,N/A,,Clear,200,2012-11-24 17:52:00
12:52 PM,60.1,19.0,20,30.25,10.0,SSW,13.8,-,N/A,,Clear,210,2012-11-24 18:52:00
1:52 PM,62.1,15.1,16,30.19,10.0,SSW,15.0,21.9,N/A,,Clear,200,2012-11-24 19:52:00
2:52 PM,62.1,19.0,19,30.16,10.0,South,13.8,-,N/A,,Clear,190,2012-11-24 20:52:00
3:52 PM,63.0,24.1,23,30.13,10.0,SSW,12.7,-,N/A,,Clear,200,2012-11-24 21:52:00
4:52 PM,61.0,25.0,25,30.12,10.0,South,9.2,-,N/A,,Clear,190,2012-11-24 22:52:00
5:52 PM,55.9,27.0,33,30.11,10.0,South,6.9,-,N/A,,Clear,170,2012-11-24 23:52:00
6:52 PM,51.1,28.0,41,30.09,10.0,SSE,9.2,-,N/A,,Clear,150,2012-11-25 00:52:00
7:52 PM,52.0,27.0,38,30.09,10.0,SSE,10.4,-,N/A,,Clear,160,2012-11-25 01:52:00
8:52 PM,54.0,27.0,35,30.06,10.0,South,11.5,-,N/A,,Clear,170,2012-11-25 02:52:00
9:52 PM,55.9,30.0,37,30.04,10.0,South,12.7,-,N/A,,Clear,180,2012-11-25 03:52:00
10:52 PM,54.0,28.9,38,30.03,10.0,South,10.4,-,N/A,,Clear,180,2012-11-25 04:52:00
11:52 PM,54.0,32.0,43,30.00,10.0,South,15.0,24.2,N/A,,Clear,180,2012-11-25 05:52:00